[Iaude] MPEC F150: 2019 FW1 [a=2.39,e=0.57,i=2.9,H=26.5]

mpec at mpcdb1.cfa.harvard.edu mpec at mpcdb1.cfa.harvard.edu
Sun Mar 31 19:09:17 EDT 2019


M.P.E.C. 2019-F150                               Issued 2019 Mar. 31, 23:05 UT
 
     The Minor Planet Electronic Circulars contain information on unusual
         minor planets and routine data on comets.  They are published
    on behalf of Division F of the International Astronomical Union by the
          Minor Planet Center, Smithsonian Astrophysical Observatory,
                          Cambridge, MA 02138, U.S.A.

             Prepared using the Tamkin Foundation Computer Network

                              MPC at CFA.HARVARD.EDU
            URL https://www.minorplanetcenter.net/    ISSN 1523-6714


                                   2019 FW1
 
Observations:
     K19F01W* C2019 03 29.33891 13 14 48.90 +04 15 31.3          20.7 GVEF150G96
     K19F01W  C2019 03 29.34398 13 14 53.13 +04 14 52.4          20.7 GVEF150G96
     K19F01W  C2019 03 29.34905 13 14 57.33 +04 14 13.8          20.6 GVEF150G96
     K19F01W  C2019 03 29.35411 13 15 01.62 +04 13 34.9          20.8 GVEF150G96
     K19F01W  C2019 03 29.35601 13 15 03.13 +04 13 20.7          20.4 GVEF150G96
     K19F01W  C2019 03 29.36112 13 15 07.46 +04 12 40.6          20.8 GVEF150G96
     K19F01W  C2019 03 29.36623 13 15 11.67 +04 12 00.5          20.2 GVEF150G96
     K19F01W  C2019 03 29.37133 13 15 16.12 +04 11 21.0                VEF150G96
     K19F01W  C2019 03 29.45283 13 16 25.00 +04 00 49.7          20.4 GVEF150I52
     K19F01W  C2019 03 29.45463 13 16 26.52 +04 00 35.9          21.1 GVEF150I52
     K19F01W  C2019 03 29.45644 13 16 28.07 +04 00 21.5          20.9 GVEF150I52
     K19F01W  C2019 03 29.45824 13 16 29.64 +04 00 07.7          20.7 GVEF150I52
     K19F01W  C2019 03 29.90452 13 23 32.65 +03 00 00.5          21.0 VVEF150033
     K19F01W  C2019 03 29.90558 13 23 33.61 +02 59 51.9          20.9 VVEF150033
     K19F01W  C2019 03 29.90664 13 23 34.56 +02 59 43.3          20.9 VVEF150033
     K19F01W  C2019 03 29.90770 13 23 35.53 +02 59 34.7          20.8 VVEF150033
     K19F01W  C2019 03 29.90876 13 23 36.51 +02 59 26.1          20.9 VVEF150033
     K19F01W  C2019 03 29.90982 13 23 37.49 +02 59 17.4          20.8 VVEF150033
     K19F01W  C2019 03 29.91087 13 23 38.42 +02 59 08.7          20.6 VVEF150033
     K19F01W KC2019 03 30.05327113 25 47.34 +02 39 43.4          20.6 GVEF150L01
     K19F01W KC2019 03 30.05469213 25 48.64 +02 39 31.5          20.6 GVEF150L01
     K19F01W IC2019 03 30.05636413 25 50.13 +02 39 18.3          20.7 GVEF150L01
     K19F01W KC2019 03 30.05817113 25 51.79 +02 39 03.2          20.8 GVEF150L01
     K19F01W KC2019 03 30.05946413 25 53.00 +02 38 51.8          20.8 GVEF150L01
     K19F01W  C2019 03 30.33377 13 30 23.66 +02 00 39.8          21.1 GVEF150I52
     K19F01W  C2019 03 30.33678 13 30 26.47 +02 00 14.0          20.4 GVEF150I52
     K19F01W  C2019 03 30.33979 13 30 29.24 +01 59 47.4          20.1 GVEF150I52
     K19F01W  C2019 03 30.34280 13 30 32.01 +01 59 22.1          20.9 GVEF150I52
     K19F01W KC2019 03 31.01719 13 41 58.70 +00 18 24.4          20.7 GVEF150K87
     K19F01W KC2019 03 31.01731 13 41 58.83 +00 18 23.9          21.0 GVEF150K87
     K19F01W KC2019 03 31.01743 13 41 58.95 +00 18 22.1          20.5 GVEF150K87
     K19F01W  C2019 03 31.30612 13 47 09.56 -00 25 55.7          20.4 GVEF150I52
     K19F01W  C2019 03 31.30758 13 47 11.02 -00 26 10.0          20.5 GVEF150I52
     K19F01W  C2019 03 31.30904 13 47 12.50 -00 26 23.8          20.3 GVEF150I52
 
Observer details:
033 Karl Schwarzschild Observatory, Tautenburg.  Observers U. Laux,
    B. Stecklum.  Measurer B. Stecklum.  1.34-m f/3 Schmidt + CCD.
G96 Mt. Lemmon Survey.  Observer B. M. Africano.  Measurers B. M. Africano,
    E. J. Christensen, G. A. Farneth, D. C. Fuls, A. R. Gibbs, A. D. Grauer,
    H. Groeller, R. A. Kowalski, S. M. Larson, G. J. Leonard, T. A. Pruyne,
    R. L. Seaman, F. C. Shelly.  1.5-m reflector + 10K CCD.
I52 Steward Observatory, Mt. Lemmon Station.  Observer H. Groeller.
    Measurers B. M. Africano, E. J. Christensen, G. A. Farneth, D. C. Fuls,
    A. R. Gibbs, A. D. Grauer, H. Groeller, R. A. Kowalski, S. M. Larson,
    G. J. Leonard, T. A. Pruyne, R. L. Seaman, F. C. Shelly.  1.0-m reflector
    + CCD.
K87 Dettelbach Vineyard Observatory.  Observer B. Haeusler.  0.30-m
    Schmidt-Cassegrain + CCD.
L01 Visnjan Observatory, Tican.  Observers K. Korlevic, G. Kervina,
    F. Valentine.  Measurer K. Korlevic.  1.0-m f/2.9 reflector + CCD.
 
Orbital elements:
2019 FW1                                                 Earth MOID = 0.0208 AU
Epoch 2019 Apr. 27.0 TT = JDT 2458600.5                 MPC
M   2.77079              (2000.0)            P               Q
n   0.26606297     Peri.  190.15041     -0.86729373     +0.49750565
a   2.3941228      Node    19.71265     -0.45310922     -0.77481528
e   0.5725380      Incl.    2.89249     -0.20613981     -0.39006334
P   3.70           H   26.5           G   0.15           U   7
Residuals in seconds of arc
190329 G96  0.1-  0.1-    190329 033  0.1+  0.1-    190330 I52  0.2-  0.3+
190329 G96  0.1-  0.1-    190329 033  0.0   0.1-    190330 I52  0.2+  0.4+
190329 G96  0.6-  0.2+    190329 033  0.2-  0.0     190330 I52  0.1+  0.3-
190329 G96  0.4+  0.2+    190329 033  0.1-  0.1+    190330 I52  0.1-  0.3+
190329 G96  0.8-  0.6+    190329 033  0.1+  0.2+    190331 K87  0.6+  0.8-
190329 G96  0.1+  0.2-    190329 033  0.4+  0.1+    190331 K87  0.8+  0.2-
190329 G96  0.9-  0.9-    190329 033  0.0   0.0     190331 K87  0.8+  0.9-
190329 G96  1.8+  1.1-    190330 L01  0.3-  0.2-    190331 I52  0.2-  0.7+
190329 I52  0.4+  0.1+    190330 L01  0.2-  0.3-    190331 I52  0.6-  0.2+
190329 I52  0.0   0.3+    190330 L01  0.7-  0.5+    190331 I52  0.7-  0.3+
190329 I52  0.0   0.1+    190330 L01  0.5-  0.5+
190329 I52  0.3+  0.4+    190330 L01  0.0   0.1-

Ephemeris:
2019 FW1                 a,e,i = 2.39, 0.57, 3                   q = 1.0234
Date    TT    R. A. (2000) Decl.     Delta      r     Elong.  Phase     V
2019 03 01    10 54 37.0 +19 29 02   0.1919  1.1792   168.2     9.9    23.9
...
2019 03 16    11 27 46.1 +17 27 28   0.1086  1.0995   164.2    14.2    22.7
...
2019 03 24    12 14 05.1 +12 26 14   0.07201 1.0669   166.4    12.7    21.7
...
2019 03 30    13 24 58.2 +02 49 09   0.05101 1.0479   165.4    13.9    20.9
2019 03 31    13 41 39.6 +00 23 28   0.04850 1.0453   163.0    16.2    20.9
2019 04 01    13 59 56.7 -02 17 01   0.04639 1.0427   159.8    19.3    20.9
...
2019 04 07    16 13 14.2 -19 42 55   0.04431 1.0308   131.6    46.5    21.6
...
2019 04 15    18 35 26.9 -29 45 29   0.06513 1.0236   106.6    69.9    23.1
...
2019 04 30    20 09 57.4 -31 05 19   0.1234  1.0378   101.0    72.3    24.6

A. U. Tomatic                (C) Copyright 2019 MPC           M.P.E.C. 2019-F150



More information about the Iaude mailing list